Weather History for St. Johnsbury, VT

Change the Weather History Date:

Tuesday, June 18, 2013

  Actual Average Record
Temperature  
Mean Temperature 58 °F 66 °F  
Max Temperature 68 °F 78 °F 97 °F (1994)
Min Temperature 48 °F 55 °F 37 °F (1956)
Degree Days  
Heating Degree Days 8    
Cooling Degree Days 0 3  
Month to date cooling degree days 21 40  
Year to date cooling degree days 37 58  
Since 1 June cooling degree days 21 40  
Growing Degree Days 7 (Base 50)    
Moisture  
Dew Point 48 °F    
Average Humidity 71    
Maximum Humidity 100    
Minimum Humidity 42    
Precipitation  
Precipitation 0.00 in 0.13 in 1.66 in (1974)
Month to date precipitation 2.27 2.38  
Year to date precipitation 14.65 15.79  
Sea Level Pressure  
Sea Level Pressure 29.93 in    
Wind  
Wind Speed - (North)    
Max Wind Speed -    
Max Gust Speed -    
T = Trace of Precipitation, MM = Missing Value Source: NWS Daily Summary

Daily Weather History Graph

Daily Weather History Graph

Search for Another Location

Airport:

Trip Planner

Search our weather history database for the weather conditions in past years. The results will help you decide how hot, cold, wet, or windy it might be!

Date:

Astronomy

Jun. 18, 2013 Rise Set
Actual Time 5:03 AM EDT 8:35 PM EDT
Civil Twilight 4:26 AM EDT 9:12 PM EDT
Nautical Twilight 3:37 AM EDT 10:00 PM EDT
Astronomical Twilight 2:34 AM EDT 11:03 PM EDT
Moon 3:07 PM EDT (6/18) 1:20 AM EDT (6/18)
Length of Visible Light 16h 45m
Length of Day
15h 32m
Waxing Gibbous, 70% of the Moon is Illuminated
Jun 18
Waxing Gibbous
Jun 23
Full
Jun 30
Last Quarter
Jul 8
New
Jul 15
First Quarter

Hourly Weather History & Observations

Time (EDT) Temp. Dew Point Humidity Pressure Visibility Wind Dir Wind Speed Gust Speed Precip Events Conditions
12:54 AM 54.0 °F 51.1 °F 90% 29.90 in - North - - N/A   Unknown
1:54 AM 53.1 °F 51.1 °F 93% 29.89 in - North - - N/A   Unknown
2:54 AM 53.1 °F 51.1 °F 93% 29.89 in - North - - N/A   Unknown
3:54 AM 51.1 °F 50.0 °F 96% 29.90 in - North - - N/A   Unknown
4:54 AM 50.0 °F 48.9 °F 96% 29.91 in - North - - N/A   Unknown
5:54 AM 48.9 °F 48.9 °F 100% 29.92 in - North - - N/A   Unknown
6:54 AM 48.9 °F 48.9 °F 100% 29.93 in - North - - N/A   Unknown
7:54 AM 51.1 °F 50.0 °F 96% 29.95 in - North - - N/A   Unknown
8:54 AM 59.0 °F 48.0 °F 67% 29.94 in - North - - N/A   Unknown
9:54 AM 59.0 °F 46.9 °F 64% 29.96 in - North - - N/A   Unknown
10:54 AM 59.0 °F 48.9 °F 69% 29.97 in - North - - N/A   Unknown
11:54 AM 60.1 °F 46.9 °F 62% 29.94 in - North - - N/A   Unknown
12:54 PM 64.0 °F 45.0 °F 50% 29.96 in - North - - N/A   Unknown
1:54 PM 64.9 °F 46.9 °F 52% 29.94 in - North - - N/A   Unknown
2:54 PM 64.9 °F 45.0 °F 48% 29.92 in - North - - N/A   Unknown
3:54 PM 66.9 °F 44.1 °F 44% 29.91 in - North - - N/A   Unknown
4:54 PM 66.0 °F 42.1 °F 42% 29.90 in - North - - N/A   Unknown
5:54 PM 66.9 °F 42.1 °F 40% 29.91 in - North - - N/A   Unknown
6:54 PM 66.0 °F 46.0 °F 48% 29.91 in - North - - N/A   Unknown
7:54 PM 63.0 °F 51.1 °F 65% 29.93 in - North - - N/A   Unknown
8:54 PM 59.0 °F 48.9 °F 69% 29.92 in - North - - N/A   Unknown
9:54 PM 55.0 °F 48.9 °F 80% 29.94 in - North - - N/A   Unknown
10:54 PM 52.0 °F 48.0 °F 86% 29.95 in - North - - N/A   Unknown
11:54 PM 50.0 °F 46.9 °F 89% 29.96 in - North - - N/A   Unknown